Regional Weather Roundup
Issued by NWS Charleston, SC

Current Version | Previous Version | Text Only | Print | Product List | Glossary Off
Versions: 1 2 3 4 5 6 7 8 9 10 11 12 13 14 15 16 17 18 19 20 21 22 23 24 25 26 27 28 29 30 31 32 33 34 35 36 37 38 39 40 41 42 43 44 45 46 47 48 49 50

000
ASUS42 KCHS 271228
RWRCHS

REGIONAL WEATHER ROUNDUP
NATIONAL WEATHER SERVICE CHARLESTON SC
800 AM EDT TUE SEP 27 2016

NOTE: "FAIR" INDICATES FEW OR NO CLOUDS BELOW 12,000 FEET WITH NO
SIGNIFICANT WEATHER AND/OR OBSTRUCTIONS TO VISIBILITY.

NOT ALL STATIONS ARE QUALITY CONTROLLED. USE DATA WITH CAUTION...
ESPECIALLY DEWPOINT OBSERVATIONS.

SCZ027-030-031-034>040-042>050-271300-
...SOUTHEAST SOUTH CAROLINA...

CITY           SKY/WX    TMP DP  RH WIND       PRES   REMARKS
N CHARLESTON   CLOUDY    74  71  91 N3        29.95R
6HR MIN TEMP:  73; 6HR MAX TEMP:  75;

WATERFRONT PRK   N/A     74  73  96 VRB3      29.92S
MOUNT PLEASANT FAIR      72  72 100 CALM      29.95R FOG
JOHNS ISLAND   FAIR      73  73 100 CALM      29.95R
PINOPOLIS        N/A     73  72  94 VRB3      29.87S
MONCKS CORNER  FAIR      70  68  94 CALM      29.95S
SUMMERVILLE    FAIR      72  72 100 CALM      29.96S
BEAUFORT MCAS  MOCLDY    74  72  93 N5        29.95R
6HR MIN TEMP:  73; 6HR MAX TEMP:  75; 6HR PCP:  0.01;

BEAUFORT ARPT  FAIR      73  70  88 N7        29.94S
HILTON HEAD IS MOCLDY    73  73 100 NE7       29.96R
WALTERBORO     CLOUDY    73  73 100 CALM      29.96S FOG
ALLENDALE      FOG       70  70 100 N3        29.96R VSB 1/4

...SOUTHERN MIDLANDS AND PEE DEE...

CITY           SKY/WX    TMP DP  RH WIND       PRES   REMARKS
GEORGETOWN     FAIR      72  70  94 E3        29.96S
KINGSTREE      CLOUDY    70  68  94 CALM      29.96S FOG
ORANGEBURG     CLEAR     71  70  96 N5        29.97R
6HR MIN TEMP:  70; 6HR MAX TEMP:  73;

BARNWELL       NOT AVBL
AIKEN          FOG       68  68 100 N5        30.02S VSB 3/4
MANNING        CLOUDY    70  68  94 CALM      29.97R FOG
COLUMBIA       PTCLDY    69  66  90 CALM      29.97S FOG
6HR MIN TEMP:  69; 6HR MAX TEMP:  74;

SUMTER         FOG       72  70  94 N3        29.96R VSB 1
6HR MIN TEMP:  70; 6HR MAX TEMP:  71;

FLORENCE       CLOUDY    72  69  90 CALM      29.97R
6HR MIN TEMP:  71; 6HR MAX TEMP:  73; 6HR PCP: TRACE;

MYRTLE BEACH   PTSUNNY   73  64  73 CALM      29.96F
N MYRTLE BEACH CLOUDY    73  71  93 N3        29.95F
6HR MIN TEMP:  72; 6HR MAX TEMP:  78; 6HR PCP: TRACE;


$$

GAZ063-065-086>088-099>101-113>116-118-119-134>141-150-271300-
...SOUTHEAST GEORGIA...

CITY           SKY/WX    TMP DP  RH WIND       PRES   REMARKS
SAVANNAH ARPT  FOG       71  70  96 N5        29.95S VSB 1/2
6HR MIN TEMP:  71; 6HR MAX TEMP:  72;

HUNTER AAF     PTCLDY    72  72 100 N3        29.92S FOG
6HR MIN TEMP:  71; 6HR MAX TEMP:  72; 6HR PCP:  0.01;

FORT STEWART   CLOUDY    72  70  94 NE3       29.93R FOG
STATESBORO     FOG       70  70 100 CALM      29.97R VSB 1/4
SYLVANIA       NOT AVBL
CLAXTON        FOG       68  68 100 CALM      29.97R VSB<1/4

...CSRA...CENTRAL AND FAR SOUTHEAST GEORGIA...

CITY           SKY/WX    TMP DP  RH WIND       PRES   REMARKS
THOMSON        PTCLDY    67  67 100 CALM      30.03S
AUGUSTA-BUSH   CLEAR     67  66  97 N3        29.97S FOG
6HR MIN TEMP:  63; 6HR MAX TEMP:  67;

AUGUSTA-DANIEL CLEAR     70  66  87 N5        29.98F FOG
SWAINSBORO     CLOUDY    68  68 100 CALM      29.99R FOG
VIDALIA        FOG       70  70 100 CALM      29.98R VSB 1/4
EASTMAN        FOG       68  67  96 CALM      30.00S VSB 1/4
HAZLEHURST     FOG       69  69 100 CALM      29.97R VSB<1/4
ALMA           FOG       68  68 100 CALM      29.96S VSB 1/4
6HR MIN TEMP:  68; 6HR MAX TEMP:  71;

WAYCROSS       FOG       72  72 100 CALM      29.97R VSB 1/4
JESUP          PTSUNNY   70  70 100 CALM      29.96S FOG
BAXLEY         FOG       70  70 100 CALM      29.97R VSB<1/4
BRUNSWICK      PTCLDY    72  72 100 CALM      29.95S
SAINT SIMONS   PTCLDY    72  70  93 MISG      29.94R
6HR MIN TEMP:  72; 6HR MAX TEMP:  75;


$$

SCZ027-028-034-036>038-045-046-048>050-GAZ119-141-271300-
...LAKE AND SUPPLEMENTAL COASTAL OBSERVATIONS...

STATION/POSITION TIME  TEMP    WIND        PRES    WAVE   SWELL
                       AIR SEA DIR/SP/G            HT/PER HT/PER/DIR
                 (UTC) (F)     (DEG/KT/KT) (MB)    (FT/S) (FT/S/D)
WINYAH BAY       1130   73     330/  3     1013.0S
LAKE MURRAY      1120   72        CALM     1014.9R
ACE BASIN NERRS  1145   71        CALM     1014.0S
FORT PULASKI     1200   74 81  350/  5/  6 1014.3
SAPELO ISLAND    1200   74     350/  5     1014.0

$$

ANZ835-935-AMZ111-154-330-350-352-354-370-450-454-472-271300-
...C-MAN AND BUOY OBSERVATIONS...

STATION/POSITION TIME  TEMP    WIND        PRES    WAVE   SWELL
                       AIR SEA DIR/SP/G            HT/PER HT/PER/DIR
                 (UTC) (F)     (DEG/KT/KT) (MB)    (FT/S) (FT/S/D)
BUOY 41004       1150   75 82   80/  2/  4 1013.6R   3/ 8   3/100/ 8
BUOY 41008       1150   77 81   40/  8/ 10 1012.7R   3/ 8   2/110/ 8
FOLLY BEACH CMAN 1200   73     300/  2/  2 1014.1F
CAPERS NEARSHORE 1208   75 81   60/  4/  8 1013.7F
FRIPP NEARSHORE  1208   76 81   60/  8/ 12 1013.9R


STATION/POSITION TIME  TEMP    WIND        PRES    WAVE   SWELL
                       AIR SEA DIR/SP/G            HT/PER HT/PER/DIR
                 (UTC) (F)     (DEG/KT/KT) (MB)    (FT/S) (FT/S/D)
5E ST. MARYS GA  1201      82                N/A     3/ 5
FRYING PAN BUOY  1200   79 82   30/  4/  6 1014.0
BUOY 41025       1150   80 84  170/ 10/ 14 1015.1R   3/ 5   3/110/ 5
CAPE LOOKOUT NC  1200   78     110/  7/  8 1014.5R
BUOY 41002       1150   77 83  120/ 23/ 27 1013.4R   6/ 6   2/ 90/13
BUOY 41010       NOT AVBL
ST AUGUSTINE FL  1200   73 83  300/  4/  5 1014.4S


$$



USA.gov is the U.S. government's official web portal to all federal, state and local government web resources and services.